Greenwood, MS

5:02 AM CDT on March 29, 2017 (GMT -0500)
Greenwood-Leflore

Weather History for KGWO - August, 2013

Change the Weather History Date:

Friday, August 23, 2013

  Actual Average Record
Temperature  
Mean Temperature 82 °F 81 °F  
Max Temperature 92 °F 92 °F 99 °F (1983)
Min Temperature 71 °F 69 °F 55 °F (1956)
Degree Days  
Heating Degree Days 0 0  
Month to date heating degree days 0 0  
Since 1 June heating degree days 0 0  
Since 1 July heating degree days 0 0  
Cooling Degree Days 17 16  
Month to date cooling degree days 370 368  
Year to date cooling degree days 1504 1616  
Since 1 June cooling degree days 1228 1286  
Growing Degree Days 32 (Base 50)    
Moisture  
Dew Point 73 °F    
Average Humidity 75    
Maximum Humidity 94    
Minimum Humidity 56    
Precipitation  
Precipitation 0.96 in 0.09 in 0.96 in (2013)
Month to date precipitation 2.53 2.05  
Year to date precipitation 38.25 33.29  
Sea Level Pressure  
Sea Level Pressure 30.01 in    
Wind  
Wind Speed 3 mph (NE)    
Max Wind Speed 23 mph    
Max Gust Speed 31 mph    
Visibility 8 miles    
Events Fog , Rain    
T = Trace of Precipitation, MM = Missing Value Source: NWS Daily Summary

Daily Weather History Graph

Daily Weather History Graph

Search for Another Location

Airport or City:

Trip Planner

Search our weather history database for the weather conditions in past years. The results will help you decide how hot, cold, wet, or windy it might be!

Date:

Astronomy

Aug. 23, 2013 Rise Set
Actual Time 6:28 AM CDT 7:36 PM CDT
Civil Twilight 6:02 AM CDT 8:02 PM CDT
Nautical Twilight 5:31 AM CDT 8:33 PM CDT
Astronomical Twilight 5:00 AM CDT 9:04 PM CDT
Moon 9:08 PM CDT (8/23) 9:12 AM CDT (8/23)
Length of Visible Light 13h 59m
Length of Day
13h 08m
Waning Gibbous, 91% of the Moon is Illuminated
Aug 23
Waning Gibbous
Aug 28
Last Quarter
Sep 5
New
Sep 12
First Quarter
Sep 19
Full

Hourly Weather History & Observations

Time (CDT) Temp. Heat Index Dew Point Humidity Pressure Visibility Wind Dir Wind Speed Gust Speed Precip Events Conditions
12:53 AM 75.9 °F - 73.0 °F 91% 30.02 in 10.0 mi ENE 3.5 mph - N/A   Clear
1:53 AM 75.0 °F - 72.0 °F 90% 30.01 in 10.0 mi NE 3.5 mph - N/A   Clear
2:53 AM 75.0 °F - 72.0 °F 90% 30.01 in 10.0 mi ENE 3.5 mph - N/A   Clear
3:53 AM 73.9 °F - 72.0 °F 93% 30.01 in 10.0 mi Calm Calm - N/A   Clear
4:53 AM 73.0 °F - 71.1 °F 93% 30.01 in 9.0 mi Calm Calm - N/A   Clear
5:53 AM 73.0 °F - 71.1 °F 93% 30.02 in 10.0 mi ENE 3.5 mph - N/A   Clear
6:53 AM 72.0 °F - 70.0 °F 93% 30.03 in 7.0 mi NE 3.5 mph - N/A   Clear
7:53 AM 77.0 °F - 73.0 °F 88% 30.05 in 10.0 mi Calm Calm - N/A   Clear
8:53 AM 82.0 °F 87.9 °F 73.9 °F 76% 30.05 in 10.0 mi Calm Calm - N/A   Clear
9:53 AM 86.0 °F 93.8 °F 73.9 °F 67% 30.06 in 10.0 mi Calm Calm - N/A   Mostly Cloudy
10:53 AM 89.1 °F 97.0 °F 73.0 °F 59% 30.05 in 10.0 mi NE 3.5 mph - N/A   Scattered Clouds
11:53 AM 91.9 °F 101.3 °F 73.9 °F 55% 30.03 in 10.0 mi ENE 10.4 mph - N/A   Partly Cloudy
12:27 PM 84.2 °F 90.9 °F 73.4 °F 70% 30.04 in 1.0 mi ENE 9.2 mph - 0.05 in Rain Light Rain
12:41 PM 77.0 °F - 73.4 °F 89% 30.05 in 0.5 mi NNW 13.8 mph 20.7 mph 0.47 in Fog , Rain Heavy Rain
12:53 PM 75.9 °F - 71.1 °F 85% 30.03 in 0.8 mi NNW 8.1 mph - 0.77 in Rain Heavy Rain
1:00 PM 77.0 °F - 71.6 °F 83% 30.03 in 1.8 mi NNE 4.6 mph - 0.03 in Rain Rain
1:04 PM 78.8 °F - 73.4 °F 83% 30.03 in 3.0 mi North 4.6 mph - 0.04 in Rain Rain
1:53 PM 82.0 °F 88.6 °F 75.0 °F 79% 30.01 in 10.0 mi Calm Calm - 0.04 in   Partly Cloudy
2:53 PM 84.0 °F 94.8 °F 78.1 °F 82% 29.99 in 10.0 mi SW 3.5 mph - N/A   Clear
3:53 PM 89.1 °F 98.0 °F 73.9 °F 61% 29.98 in 10.0 mi Calm Calm - N/A   Clear
4:53 PM 81.0 °F 84.9 °F 71.1 °F 72% 29.98 in 10.0 mi ENE 18.4 mph 31.1 mph N/A   Mostly Cloudy
5:12 PM 78.8 °F - 71.6 °F 78% 29.99 in 1.5 mi NE 8.1 mph 17.3 mph 0.12 in Rain Heavy Rain
5:23 PM 80.6 °F 85.4 °F 73.4 °F 79% 29.98 in 4.0 mi East 4.6 mph - 0.15 in Rain Light Rain
5:53 PM 81.0 °F 86.2 °F 73.9 °F 79% 29.97 in 10.0 mi East 5.8 mph - 0.15 in   Clear
6:53 PM 82.0 °F 87.9 °F 73.9 °F 76% 29.97 in 10.0 mi ENE 3.5 mph - N/A   Clear
7:53 PM 77.0 °F - 73.9 °F 90% 29.99 in 10.0 mi Calm Calm - N/A   Clear
8:53 PM 77.0 °F - 73.9 °F 90% 30.00 in 10.0 mi NE 3.5 mph - N/A   Clear
9:53 PM 75.9 °F - 73.9 °F 94% 30.01 in 10.0 mi Calm Calm - N/A   Clear
10:53 PM 75.9 °F - 73.9 °F 94% 30.01 in 10.0 mi ENE 3.5 mph - N/A   Clear
11:53 PM 75.0 °F - 73.0 °F 94% 30.02 in 10.0 mi Calm Calm - N/A   Clear